Regional Weather Roundup
Issued by NWS Northern Indiana

Home | Current Version | Previous Version | Graphics & Text | Print | Product List | Glossary On
Versions: 1 2 3 4 5 6 7 8 9 10 11 12 13 14 15 16 17 18 19 20 21 22 23 24 25 26 27 28 29 30 31 32 33 34 35 36 37 38 39 40 41 42 43 44 45 46 47 48 49 50
000
ASUS43 KIWX 242110
RWRIWX

KIWX WEATHER ROUNDUP
NATIONAL WEATHER SERVICE NORTHERN INDIANA
500 PM EDT SUN MAY 24 2015

NOTE: "FAIR" INDICATES FEW OR NO CLOUDS BELOW 12,000 FEET WITH NO
SIGNIFICANT WEATHER AND/OR OBSTRUCTIONS TO VISIBILITY.

* THESE STATIONS ARE NOT UNDER NWS QUALITY CONTROL. THEY ALSO MAY NOT
  REPORT WEATHER SUCH AS PRECIPITATION OR FOG.

INZ001>027-242200-
NORTHERN INDIANA

CITY           SKY/WX    TMP DP  RH WIND       PRES   REMARKS
GARY*          CLOUDY    82  57  42 SE14      29.99F
VALPARAISO     CLOUDY    82  56  40 S15G28    30.01F
MICHIGAN CITY* CLOUDY    81  54  39 SE9G16    30.02F
LAPORTE*       PTSUNNY   83  56  38 S14G20    30.03F
KNOX*          PTSUNNY   86  54  32 S18G24    30.02F
SOUTH BEND     CLOUDY    83  56  39 SE15G24   30.05F
ELKHART*       CLOUDY    81  55  41 SE9       30.07F
GOSHEN         CLOUDY    80  57  45 SE12      30.08F
MONTICELLO*    MOSUNNY   80  59  47 S13G21    30.04F
LOGANSPORT*    CLOUDY    82  45  26 S18G24    30.07F
ROCHESTER*     PTSUNNY   82  54  36 S12G22    30.07F
WARSAW*        PTSUNNY   81  55  41 S6        30.08F
ANGOLA*        PTSUNNY   79  57  47 S9        30.12F
FORT WAYNE     MOSUNNY   82  54  37 S14       30.11F
HUNTINGTON*    MOSUNNY   81  53  37 S9G20     30.09F
PERU/GRISSOM   MOSUNNY   82  55  39 S15G26    30.07F
MARION*        MOSUNNY   83  49  31 S18G26    30.11F

$$
INZ028>050-242200-
CENTRAL INDIANA

CITY           SKY/WX    TMP DP  RH WIND       PRES   REMARKS
LAFAYETTE      PTSUNNY   81  58  45 S14G24    30.04F
KOKOMO*        MOSUNNY   82  55  39 S23G30    30.08F
MUNCIE*        MOSUNNY   84  51  31 S13G21    30.11F
INDIANAPOLIS   PTSUNNY   82  53  36 S20G26    30.08F

$$
MIZ043>046-050>051-056>058-064>065-071>073-077>080-242200-
SOUTHWEST LOWER MICHIGAN

CITY           SKY/WX    TMP DP  RH WIND       PRES   REMARKS
BATTLE CREEK   CLOUDY    76  56  49 SE8       30.14F
BENTON HARBOR  CLOUDY    74  57  55 E9        30.05F
COLDWATER*     CLOUDY    76  56  49 SE7       30.13F
HILLSDALE*     CLOUDY    79  54  42 S5        30.15F
HOLLAND        LGT RAIN  70  55  59 E8        30.09F
GRAND RAPIDS   LGT RAIN  73  53  49 E8        30.13F
KALAMAZOO      CLOUDY    76  56  49 VRB3      30.11F
STURGIS*       CLOUDY    79  55  44 SE6       30.10F
THREE RIVERS*  PTSUNNY   77  56  48 SE7       30.10F

$$
OHZ001>008-015>018-024>025-242200-
NORTHWEST OHIO

CITY           SKY/WX    TMP DP  RH WIND       PRES   REMARKS
WAUSEON*       FAIR      82  54  36 S10G16    30.13F
DEFIANCE       PTSUNNY   83  53  35 S8G18     30.12F
FINDLAY        CLOUDY    83  53  35 S10       30.14F
TOLEDO EXPRESS CLOUDY    80  53  39 SW7       30.13F
TOLEDO METCALF CLOUDY    81  52  36 S12       30.15F
LIMA           PTSUNNY   82  53  36 SW12      30.15F

$$
AND FOR LAKE MICHIGAN COASTAL AND OPEN LAKE BUOY OBSERVATIONS

STATION/POSITION TEMP    WIND        PRES    VSBY  WAVE
                 AIR SEA DIR/SP/G                  HT/PER
                 (F)     (DEG/KT/KT) (MB)    (MI)  (FT/S)
CALUMET HARBOR    62      70/  9/ 10   N/A
MICHIGAN CITY     79     110/  9/ 13   N/A
BURNS HARBOR      82     170/ 12/ 17 1016.3F
SAINT JOSEPH      76     360/  3/  6 1017.3F
SOUTH LAKE BUOY   46 38   70/ 12/ 14 1018.0F         0
4 MI NW BRIDGMAN  69 55  140/ 10/ 12   N/A           1
MICHIGAN CITY     70 54  160/ 10/ 16   N/A           1

$$
&&


USA.gov is the U.S. government's official web portal to all federal, state and local government web resources and services.